Preview of NWS' New Version of Forecast
This preview is not operational and should not be used for support decisions.
Latest weather observations around

Tuscaloosa Regional Airport (KTCL)

Using International System of Units (Switch to English Units)
Date/ Time (CDT) Wind (kph) Vis. (km) Weather Sky Cond. Temp (°C) Rel. Humidity Wind Chill (°C) Heat Index (°C) Pressure Precip. (cm)
Air Dwpt 6 hour Altimeter (hPa) Sea level (hPa) 1 hr 3 hr 6 hr
Max Min
May 26 23:53 SSE 8 14.48 Light Rain FEW075 24 22     88%   25 1012.9 1012.4 0    
May 26 23:36 S 11 16.09 Light Rain FEW021 FEW042 SCT075 24 22     85%   25 1012.5   0    
May 26 23:04 Calm 16.09 Mostly Cloudy FEW038 BKN060 24 22     90%   25 1012.5        
May 26 22:53 Calm 16.09 Partly Cloudy SCT060 24 22     90%   25 1012.5 1012.2      
May 26 21:53 Calm 16.09 Clear CLR 24 22     88%   25 1012.2 1012      
May 26 20:53 Calm 16.09 Clear CLR 25 22     84%   26 1011.5 1011.2      
May 26 19:53 SW 8 16.09 Clear CLR 26 22     77%   28 1010.8 1010.5      
May 26 18:53 S 8 16.09 Mostly Clear FEW032 FEW047 28 21     67%   30 1010.5 1010.3      
May 26 17:53 S 17 16.09 Mostly Clear FEW038 FEW110 29 21     61%   32 1010.2 1009.7      
May 26 16:53 SSW 9 16.09 Mostly Clear FEW046 30 20     55%   32 1010.2 1009.9      
May 26 15:53 5 16.09 Mostly Cloudy BKN041 31 20     53%   33 1010.5 1010.2      
May 26 14:53 8 16.09 Mostly Cloudy SCT041 BKN055 29 20     57%   31 1011.2 1010.8      
May 26 13:53 SE 11 16.09 Partly Cloudy SCT033 SCT041 SCT055 28 20     61%   30 1011.9 1011.6      
May 26 12:53 Calm 16.09 Mostly Cloudy BKN030 BKN040 28 21     65%   30 1012.9 1012.4      
May 26 12:04 WSW 8 16.09 Mostly Clear FEW025 28 21     67%   30 1013.2        
May 26 11:53 5 16.09 Mostly Cloudy BKN025 BKN030 27 21     67%   29 1013.6 1013.2      
May 26 11:26 SSW 8 16.09 Mostly Cloudy BKN022 26 21     72%   27 1013.9        
May 26 11:15 SE 5 16.09 Partly Cloudy SCT022 SCT029 26 20     69%   27 1013.9        
May 26 10:53 S 5 16.09 Mostly Cloudy BKN021 26 20     69%   27 1014.2 1013.8      
May 26 09:53 S 9 16.09 Cloudy OVC015 24 21     82%   24 1014.6 1014.1      
May 26 09:36 SSW 9 16.09 Cloudy OVC015 23 21     85%   24 1014.6        
May 26 08:53 Calm 16.09 Mostly Cloudy BKN010 BKN085 23 21     85%   24 1014.6 1014.2      
May 26 08:27 Calm 16.09 Partly Cloudy SCT007 SCT090 23 20     84%   23 1014.2        
May 26 08:16 Calm 16.09 Mostly Cloudy BKN007 23 20     84%   23 1014.2        
May 26 07:53 Calm 16.09 Mostly Clear FEW008 22 20     87%   23 1013.9 1013.7      
May 26 07:17 Calm 16.09 Mostly Clear FEW007 22 20     90%   22 1013.9        
May 26 06:53 Calm 14.48 Mostly Cloudy BKN007 22 20     90%   22 1013.6 1013.4      
May 26 05:53 Calm 14.48 Mostly Cloudy BKN006 21 20     93%     1013.2 1013      
May 26 05:51 Calm 14.48 Mostly Cloudy BKN006 21 20     94%     1013.2        
May 26 05:21 Calm 14.48 Mostly Clear FEW006 21 20     93%     1012.9        
May 26 04:53 Calm 16.09 Cloudy BKN006 OVC010 21 20     93%     1012.9 1012.7      
May 26 04:39 S 8 16.09 Cloudy BKN006 OVC010 21 20     93%     1013.2        
May 26 04:10 S 11 4.83 Fog/Mist OVC002 21 21     97%     1012.5        
May 26 03:59 S 9 1.61 Fog/Mist BKN002 21 21     97%     1012.5        
May 26 03:51 S 13 3.22 Fog/Mist BKN002 21 21     97%     1012.5 1012.1      
May 26 03:50 S 11 4.02 Fog/Mist BKN002 21 21     100%     1012.5        
May 26 03:42 S 11 9.66 Fog/Mist SCT002 22 21     93%   22 1012.5        
May 26 02:53 SSW 5 12.87 Clear CLR 22 21     93%   22 1012.5 1012.1      
May 26 01:53 SSW 5 16.09 Clear CLR 22 21     93%   22 1012.9 1012.5      
May 26 00:53 S 9 16.09 Mostly Clear FEW100 22 21     91%   23 1013.2 1012.7 0   0
May 25 23:53 S 5 16.09 Clear CLR 23 21     87%   23 1013.6 1013.2      
May 25 22:53 SSE 8 16.09 Clear CLR 23 21     85%   24 1013.6 1013.2      
May 25 21:53 SSE 9 16.09 Mostly Clear FEW045 24 20     79%   24 1014.2 1014      
May 25 20:53 S 9 16.09 Mostly Cloudy FEW050 BKN065 BKN100 24 21     82%   24 1014.2 1014.1      
May 25 19:53 S 8 16.09 Mostly Cloudy BKN120 25 21     79%   26 1013.9 1013.5      
May 25 18:53 Calm 16.09 Clear CLR 26 22     77%   28 1012.9 1012.5     0
May 25 17:53 ESE 8 16.09 Mostly Cloudy BKN120 26 22     79%   26 1012.9 1012.6      
May 25 16:53 E 9 16.09 Mostly Clear FEW017 FEW090 24 22     88%   25 1013.2 1012.8 0    
May 25 16:27 E 9 8.05 Light Rain and Fog/Mist FEW026 SCT070 OVC085 23 22     91%   24 1013.9   0    
May 25 16:15 E 18 4.83 Light Rain FEW042 BKN060 OVC080 23 21     85%   24 1013.9   0    
May 25 15:53 ESE 24 16.09 Thunderstorms BKN043 BKN049 OVC065 25 19     71%   25 1013.9 1013.5      
May 25 15:30   16.09 Thunderstorms BKN043 31 21     55%   33 1013.2        
May 25 14:53 SW 11 16.09 Clear CLR 31 21     54%   34 1013.2 1012.8      
May 25 13:53 SSW 11 16.09 Mostly Clear FEW037 30 21     57%   32 1014.2 1013.8      
May 25 12:53 5 16.09 Mostly Clear FEW042 30 20     55%   32 1015.2 1015      
May 25 11:53 9 16.09 Mostly Cloudy BKN034 29 21     61%   31 1016.3 1015.9      
May 25 10:53 Calm 16.09 Mostly Clear FEW050 28 21     65%   30 1016.9 1016.5      
May 25 09:53 Calm 16.09 Mostly Clear FEW060 25 21     79%   26 1017.3 1016.9      
May 25 08:53 Calm 16.09 Mostly Clear FEW055 24 21     82%   24 1017.3 1017      
May 25 07:53 E 5 9.66 Fog/Mist CLR 22 21     91%   23 1017.3 1016.8      
May 25 06:53 Calm 9.66 Fog/Mist CLR 22 20     90%   22 1016.9 1016.7      
May 25 05:53 ENE 5 6.44 Fog/Mist CLR 21 19     93%     1016.3 1016.1      
May 25 05:49 E 8 4.83 Fog/Mist FEW003 21 19     88%     1016.6        
May 25 05:33 Calm 2.41 Fog/Mist FEW003 21 19     93%     1016.3        
May 25 05:18 Calm 1.21 Fog/Mist VV003 20 19     96%     1016.3        
May 25 05:00 Calm 2.82 Fog/Mist FEW002 20 19     93%     1016.3        
May 25 04:53 Calm 1.61 Fog/Mist VV002 21 19     93%     1016.3 1016.1      
May 25 04:43 Calm 2.82 Fog/Mist FEW002 20 19     93%     1016.3        
May 25 04:28 Calm 8.05 Fog/Mist SCT002 20 19     93%     1016.3        
May 25 04:10 Calm 6.44 Fog/Mist CLR 20 19     96%     1016.3        
May 25 04:03 Calm 3.22 Fog/Mist CLR 21 19     93%     1016.3        
May 25 03:53 Calm 0.8 Fog CLR 20 19     96%     1016.3 1015.9      
May 25 03:45 Calm 1.21 Fog/Mist VV003 20 19     93%     1016.3        
May 25 03:42 Calm 2.82 Fog/Mist FEW003 21 19     93%     1016.3        
May 25 03:32 Calm 4.83 Fog/Mist FEW003 21 19     93%     1016.3        
May 25 03:29 Calm 2.01 Fog/Mist FEW003 21 19     93%     1016.3        
May 25 03:13 Calm 1.21 Fog/Mist VV002 21 19     93%     1016.3        
May 25 03:08 Calm 2.01 Fog/Mist FEW002 21 19     93%     1016.3        
May 25 02:55 Calm 1.21 Fog/Mist VV002 21 19     93%     1016.3        
May 25 02:53 Calm 2.01 Fog/Mist FEW003 21 19     93%     1016.3 1016.1      
May 25 02:34 Calm 1.21 Fog/Mist CLR 21 19     93%     1016.6        
May 25 02:25 Calm 4.02 Fog/Mist CLR 21 20     93%     1016.6        
May 25 02:08 Calm 0.8 Fog CLR 21 20     93%     1016.6        
May 25 01:59 Calm 2.41 Fog/Mist CLR 21 19     93%     1016.6        
May 25 01:53 Calm 8.05 Fog/Mist CLR 21 20     93%     1016.9 1016.5      
May 25 00:53 Calm 6.44 Fog/Mist CLR 21 20     93%     1017.6 1017.2     0
May 25 00:48 Calm 3.22 Fog/Mist CLR 21 20     94%     1017.6        
May 25 00:37 Calm 8.05 Fog/Mist CLR 22 21     93%   22 1017.6        
May 25 00:28 SSW 5 4.02 Fog/Mist CLR 22 21     93%   22 1018        
May 24 23:53 Calm 8.05 Fog/Mist CLR 22 21     93%   23 1018 1017.6      
May 24 22:53 Calm 9.66 Fog/Mist BKN110 22 21     93%   23 1018.3 1018.1      
May 24 21:53 S 9 14.48 Mostly Cloudy BKN110 22 21     93%   23 1018.3 1018   0  
May 24 20:53 Calm 11.27 Clear CLR 23 22     94%   24 1017.6 1017.1      
May 24 19:53 Calm 6.44 Fog/Mist FEW120 23 22     94%   24 1016.6 1016.2 0    
May 24 18:53 Calm 9.66 Fog/Mist FEW046 BKN120 23 21     90%   23 1016.3 1015.9 0   1
May 24 17:53 Calm 8.05 Light Rain and Fog/Mist OVC110 23 21     90%   23 1017.3 1017 0    
May 24 17:23 S 8 9.66 Light Rain and Fog/Mist FEW050 FEW070 OVC110 23 22     94%   24 1017.6   0    
May 24 17:06 Calm 4.83 Thunderstorms and Rain and Fog/Mist SCT043 BKN050 OVC110 23 22     94%   24 1017.6   0    
May 24 17:01 WSW 8 3.22 Rain and Fog/Mist BKN043 BKN050 OVC080 23 22     91%   24 1018   0    
May 24 16:53 Calm 1.61 Thunderstorms and Heavy Rain and Fog/Mist BKN043 OVC080 23 22     94%   24 1017.6 1017.5 1    
May 24 16:51 Calm 1.61 Thunderstorms and Heavy Rain and Fog/Mist BKN041 BKN050 OVC075 23 22     94%   24 1017.6   1    
May 24 16:43 E 9 1.21 Thunderstorms and Heavy Rain and Fog/Mist BKN039 BKN060 OVC080 23 22     94%   24 1017.6   1    
May 24 16:29 11 2.82 Thunderstorms and Heavy Rain and Fog/Mist FEW043 BKN055 OVC095 23 21     90%   23 1018   0    
May 24 15:53 SSE 13 14.48 Thunderstorms SCT039 OVC047 25 21     79%   26 1017.6 1017.2      
May 24 15:38 SSW 21 16.09 Thunderstorms FEW030 BKN040 OVC065 27 20     65%   29 1017.3        
May 24 15:08 WSW 17 16.09 Partly Cloudy SCT060 30 22     61%   33 1016.6        
May 24 14:53 Calm 16.09 Mostly Clear FEW060 33 19     44%   34 1016.3 1016.1      
May 24 13:53 9 16.09 Clear CLR 33 19     43%   35 1016.6 1016.4      
May 24 12:53 NE 11 16.09 Mostly Clear FEW050 33 20     47%   35 1017.6 1017.4      
May 24 11:53 ENE 5 16.09 Partly Cloudy SCT039 32 21     52%   35 1018.6 1018.2      
May 24 10:53 Calm   Partly Cloudy SCT029 31 22     61%   34 1019 1018.8      
May 24 09:53 5 16.09 Clear CLR 29 22     67%   32 1019.3 1018.9      
May 24 08:53 Calm 14.48 Clear CLR 25 22     84%   26 1019.7 1019.3      
May 24 08:40 Calm 14.48 Mostly Clear FEW003 24 22     90%   25 1019.7        
May 24 08:13 Calm 4.83 Fog/Mist OVC002 23 22     94%   24 1019.3        
May 24 08:01 Calm 2.82 Fog/Mist OVC002 22 22     97%   23 1019.3        
May 24 07:53 Calm 1.21 Fog/Mist OVC002 22 22     97%   23 1019.3 1019      
May 24 07:50 Calm 1.21 Fog/Mist VV002 22 22     100%   23 1019.3        
May 24 06:53 Calm 0.4 Fog VV002 22 21     96%   22 1019 1018.5      
May 24 06:07 Calm 0.4 Fog VV002 22 21     93%   22 1018.6        
May 24 05:53 Calm 1.21 Fog/Mist OVC002 21 21     97%     1018.3 1018.1      
May 24 05:45 Calm 1.21 Fog/Mist VV002 22 21     93%   22 1018.3        
May 24 05:26 Calm 0.4 Fog VV002 22 21     93%   22 1018.3        
May 24 05:04 Calm 0.8 Fog VV003 22 21     93%   22 1018        
May 24 04:53 Calm 2.01 Fog/Mist OVC002 22 21     93%   22 1018 1017.6      
May 24 04:40 Calm 0.8 Fog VV003 22 21     93%   22 1018        
May 24 04:33 Calm 0.4 Fog VV003 22 21     93%   22 1018        
May 24 04:10 Calm 1.21 Fog/Mist VV002 21 21     97%     1017.6        
May 24 03:53 Calm 2.01 Fog/Mist BKN003 22 21     93%   22 1017.6 1017.2      
May 24 03:40 Calm 1.21 Fog/Mist VV003 21 21     97%     1017.6        
May 24 03:38 Calm 2.41 Fog/Mist FEW003 21 21     97%     1017.6        
May 24 03:36 Calm 4.83 Fog/Mist CLR 21 21     97%     1017.6        
May 24 03:27 Calm 2.82 Fog/Mist FEW004 21 20     93%     1017.3        
May 24 03:19 Calm 8.05 Fog/Mist SCT005 21 20     93%     1017.6        
May 24 03:12 Calm 4.02 Fog/Mist SCT005 22 21     93%   22 1017.3        
May 24 03:08 Calm 1.61 Fog/Mist VV005 22 21     93%   22 1017.3        
May 24 03:03 Calm 0.8 Fog VV004 22 21     93%   22 1017.3        
May 24 02:56 Calm 1.21 Fog/Mist VV005 21 21     97%     1017.6        
May 24 02:53 Calm 2.01 Fog/Mist SCT004 22 21     93%   22 1017.6 1017.1      
May 24 02:37 Calm 4.83 Fog/Mist SCT003 22 21     93%   22 1017.3        
May 24 02:35 Calm 2.01 Fog/Mist SCT003 22 21     93%   22 1017.3        
May 24 02:28 Calm 1.21 Fog/Mist VV003 22 21     93%   22 1017.6        
May 24 02:24 Calm 2.82 Fog/Mist SCT004 22 21     93%   22 1017.6        
May 24 02:19 Calm 6.44 Fog/Mist SCT003 22 21     93%   22 1017.6        
May 24 01:53 Calm 8.05 Fog/Mist CLR 22 21     93%   22 1017.6 1017.4      
May 24 01:35 Calm 6.44 Fog/Mist CLR 22 21     91%   23 1017.6        
May 24 01:24 Calm 2.82 Fog/Mist CLR 22 21     93%   22 1018        
May 24 00:53 Calm 9.66 Fog/Mist CLR 22 21     93%   23 1018 1017.7      
May 24 00:50 Calm 4.83 Fog/Mist CLR 22 21     94%   23 1018        
May 24 00:30 Calm 2.82 Fog/Mist CLR 22 21     93%   23 1018.3        
May 23 23:53 Calm 9.66 Fog/Mist CLR 22 21     93%   23 1018.6 1018.2      
May 23 22:53 Calm 14.48 Clear CLR 23 22     94%   24 1019 1018.6      
May 23 21:53 Calm 16.09 Clear CLR 23 22     94%   24 1018.6 1018.4      
May 23 20:53 Calm 16.09 Clear CLR 24 22     88%   25 1018.3 1018.1      
May 23 19:53 Calm 16.09 Clear CLR 24 22     88%   25 1017.6 1017.3      
May 23 18:53 E 5 16.09 Clear CLR 25 22     82%   26 1016.6 1016.2     0
May 14 13:53 NE 9 16.09 Clear CLR 34 16     34%   35 1015.9 1015.6      
May 13 19:53 Calm 16.09 Clear CLR 27 21     69%   28 1016.3 1016.1      
May 12 07:48 Calm 3.22 Clear   21 17     78%     1021.7        
May 11 23:53 Calm 14.48 Clear CLR 19 18     96%     1018.6 1018.3      
Jun 11 13:53 11 16.09 Mostly Clear FEW050 32 19     47%   34 1019.3 1018.9      
Jun 11 12:53 SE 11 16.09 Mostly Clear FEW048 31 19     50%   33 1019.7 1019.4      
Jun 10 23:53 NNE 5 16.09 Clear CLR 22 19     84%   22 1018.3 1017.8 0    
Jun 10 11:53 5 16.09 Partly Cloudy SCT080 30 16     42%   30 1018.3 1017.9      
Jun 10 09:53 9 16.09 Clear CLR 27 17     53%   28 1018.3 1018.1      
Jun 09 15:53 SW 11 16.09 Clear CLR 28 14     44%   28 1013.9 1013.7      
Jun 09 01:53 Calm 12.87 Clear CLR 16 15     93%     1013.2 1012.9      
Jun 08 10:53 N 13 16.09 Clear CLR 24 15     56%   24 1013.9 1013.5      
Jun 06 03:53 NE 5 16.09 Cloudy OVC007 22 21     93%   23 1008.1 1007.9      
Jun 05 21:43 NE 8 16.09 Cloudy BKN009 OVC023 22 22     97%   23 1009.2   0